EW1514 Weather Reports


Display with metric or nautical units.
time (UTC)temp
F
wind
direction
speed
MPH
gust
MPH
rain 1hr
in
rain 24hr
in
rain mn
in
humidity
%
barometer
mb
20260504003048 48 85 1.0 3.0 0.00 0.03 0.00 62 1018.5
20260504001603 49 221 1.0 5.0 0.00 0.03 0.00 60 1018.6
20260504000041 49 59 0.0 0.0 0.00 0.03 0.00 59 1018.5
20260503234536 49 59 0.0 0.0 0.00 0.03 0.00 58 1018.5
20260503233039 50 59 0.0 0.0 0.00 0.03 0.00 57 1018.6
20260503231534 50 59 1.0 3.0 0.00 0.03 0.00 56 1018.6
20260503230031 51 63 0.0 2.0 0.00 0.03 0.00 56 1018.7
20260503224529 51 63 0.0 3.0 0.00 0.03 0.00 54 1018.6
20260503223024 52 53 0.0 5.0 0.00 0.03 0.00 53 1018.6
20260503221521 53 355 0.0 2.0 0.00 0.03 0.00 53 1018.6
20260503220017 54 355 1.0 3.0 0.00 0.03 0.00 50 1018.5
20260503214518 55 355 0.0 4.0 0.00 0.03 0.00 48 1018.5
20260503213012 55 345 0.0 4.0 0.00 0.03 0.00 45 1018.4
20260503211508 56 308 2.0 4.0 0.00 0.03 0.00 45 1018.4
20260503210008 56 103 3.0 6.0 0.00 0.03 0.00 43 1018.3
20260503204506 56 186 0.0 4.0 0.00 0.03 0.03 44 1018.3
20260503203013 57 142 4.0 9.0 0.00 0.03 0.03 41 1018.3
20260503201504 56 189 0.0 8.0 0.00 0.03 0.03 42 1018.3
20260503200005 56 130 2.0 7.0 0.00 0.03 0.03 43 1018.3
20260503194504 56 67 2.0 7.0 0.00 0.03 0.03 43 1018.4
20260503193003 57 78 1.0 5.0 0.00 0.03 0.03 42 1018.3
20260503191502 57 121 1.0 4.0 0.00 0.03 0.03 40 1018.2
20260503190004 58 189 0.0 4.0 0.00 0.03 0.03 40 1018.1
20260503184502 58 123 2.0 10.0 0.00 0.03 0.03 38 1017.8
20260503183002 59 76 4.0 10.0 0.00 0.03 0.03 37 1017.5
20260503181502 59 71 3.0 12.0 0.00 0.03 0.03 37 1017.3
20260503180100 60 105 3.0 9.0 0.00 0.03 0.03 36 1017.1
20260503180000 60 111 4.0 9.0 0.00 0.03 0.03 36 1017.2
20260503174603 61 105 1.0 6.0 0.00 0.03 0.03 37 1017.1
20260503173105 62 87 0.0 2.0 0.00 0.03 0.03 38 1017.0
20260503171604 63 5 0.0 2.0 0.00 0.03 0.03 34 1016.8
20260503081510 57 14 5.0 14.0 0.01 0.04 0.03 44 1018.9
20260503071548 53 52 2.0 9.0 0.00 0.03 0.02 64 1018.8
20260503060106 48 11 0.0 4.0 0.01 0.03 0.02 81 1018.6
20260503054552 48 355 0.0 0.0 0.02 0.03 0.02 78 1018.5
20260503053037 48 355 0.0 3.0 0.02 0.03 0.02 77 1018.4
20260503051525 48 13 1.0 6.0 0.02 0.03 0.02 74 1018.4
20260503050025 49 57 9.0 17.0 0.02 0.02 0.02 1018.3
20260503044523 49 84 4.0 7.0 0.00 0.01 0.00 73 1017.9
20260503043025 49 76 0.0 4.0 0.00 0.01 0.00 74 1017.8
20260503041520 49 76 2.0 7.0 0.00 0.01 0.00 73 1017.6
20260503040031 48 80 4.0 8.0 0.00 0.01 0.00 78 1017.5
20260503034518 48 335 2.0 6.0 0.00 0.01 0.00 78 1017.4
20260503033014 48 5 2.0 6.0 0.00 0.01 0.00 78 1017.2
20260503031513 48 59 1.0 5.0 0.00 0.01 0.00 80 1017.1
20260503030013 47 5 1.0 3.0 0.00 0.01 0.00 81 1017.1
20260503024513 47 360 0.0 9.0 0.00 0.01 0.00 82 1017.2
20260503023012 47 82 2.0 6.0 0.00 0.01 0.00 83 1017.5
20260503021510 47 59 2.0 6.0 0.00 0.01 0.00 83 1017.5
20260503020010 47 56 4.0 9.0 0.00 0.01 0.00 82 1017.3
20260503014509 47 39 2.0 5.0 0.00 0.01 0.00 81 1017.2
20260503013006 48 24 3.0 5.0 0.00 0.01 0.00 80 1017.2
20260503011501 49 27 4.0 8.0 0.00 0.01 0.00 77 1017.4
20260503004600 50 31 0.0 4.0 0.00 0.01 0.00 72 1017.4